Regional Weather Roundup
Issued by NWS Memphis, TN

Home | Current Version | Previous Version | Text Only | Print | Product List | Glossary On
Versions: 1 2 3 4 5 6 7 8 9 10 11 12 13 14 15 16 17 18 19 20 21 22 23 24 25 26 27 28 29 30 31 32 33 34 35 36 37 38 39 40 41 42 43 44 45 46 47 48 49 50
000
ASUS44 KMEG 290610
RWRMEG
MEMPHIS CWA HOURLY WEATHER ROUNDUP
NATIONAL WEATHER SERVICE MEMPHIS TN
100 AM CDT SAT APR 29 2017

...WEST TENNESSEE...

CITY           SKY/WX    TMP DP  RH WIND       PRES   REMARKS
MEMPHIS INTL   CLEAR     77  70  79 S16G30    29.80F
6HR MIN TEMP:  77; 6HR MAX TEMP:  82;

NWS MEMPHIS      N/A     77 N/A N/A MISG        N/A
JACKSON        CLEAR     77  69  76 S16G28    29.82F
6HR MIN TEMP:  77; 6HR MAX TEMP:  82;

SOMERVILLE     MOCLDY    77  70  78 S16G29    29.82F
BOLIVAR        CLOUDY    77  68  73 S15G23    29.84F
LEXINGTON      MOCLDY    77  70  78 S14G23    29.86S
SAVANNAH       PTCLDY    77  70  78 S15G23    29.88F
DYERSBURG      CLEAR     78  69  73 S9G22     29.80S
6HR MIN TEMP:  78; 6HR MAX TEMP:  81;

UNION CITY     CLOUDY    77  70  78 S15       29.80S
HUNTINGDON     MOCLDY    77  70  78 S14G21    29.83S


...EASTERN ARKANSAS...

CITY           SKY/WX    TMP DP  RH WIND       PRES   REMARKS
JONESBORO      CLOUDY    76  70  82 S18G26    29.77R
6HR MIN TEMP:  74; 6HR MAX TEMP:  80;

WEST MEMPHIS   PTCLDY    77  71  82 S23G30    29.78F
6HR MIN TEMP:  76; 6HR MAX TEMP:  81;

BATESVILLE     CLOUDY    79  70  73 S12G18    29.76R
6HR MIN TEMP:  68; 6HR MAX TEMP:  79;

NEWPORT        CLOUDY    76  71  85 S22       29.76R
6HR MIN TEMP:  74; 6HR MAX TEMP:  78;

WALNUT RIDGE   MOCLDY    75  68  78 S15       29.76R
6HR MIN TEMP:  70; 6HR MAX TEMP:  75;

BLYTHEVILLE    CLEAR     78  70  76 S20G28    29.78S
6HR MIN TEMP:  77; 6HR MAX TEMP:  80;

SEARCY         CLOUDY    78  73  84 S13       29.78R
6HR MIN TEMP:  77; 6HR MAX TEMP:  80;

STUTTGART      PTCLDY    77  64  65 S18       29.78S
6HR MIN TEMP:  75; 6HR MAX TEMP:  82;

PINE BLUFF     PTCLDY    77  70  79 S15       29.78S
6HR MIN TEMP:  77; 6HR MAX TEMP:  82;

MONTICELLO     MOCLDY    77  71  82 S12G20    29.80S
6HR MIN TEMP:  77; 6HR MAX TEMP:  84;



...NORTH MISSISSIPPI...

CITY           SKY/WX    TMP DP  RH WIND       PRES   REMARKS
TUPELO         CLEAR     76  68  76 SE14      29.93F
6HR MIN TEMP:  76; 6HR MAX TEMP:  84;

OXFORD         CLEAR     73  68  83 S13G20    29.91F
BATESVILLE     CLEAR     75  70  83 S7        29.87F
TUNICA         CLEAR     73  70  88 S15G23    29.82F
CLARKSDALE     CLEAR     77  75  94 SE15G24   29.83F
CORINTH        CLEAR     75  68  78 S18       29.89F
GREENWOOD      CLEAR     77  71  82 S15       29.89R
6HR MIN TEMP:  77; 6HR MAX TEMP:  84;

COLUMBUS       CLEAR     76  72  85 S12       29.95S
6HR MIN TEMP:  76; 6HR MAX TEMP:  84;

STARKVILLE     MOCLDY    73  70  88 S10       29.97S
GOLDEN TRIANGL CLEAR     75  66  73 S14       29.93S
6HR MIN TEMP:  75; 6HR MAX TEMP:  82;



...SOUTHEAST MISSOURI...

CITY           SKY/WX    TMP DP  RH WIND       PRES   REMARKS
KENNETT        CLOUDY    77  72  83 S12G17    29.77R HAZE
MALDEN         CLOUDY    77  70  78 S12       29.79R
WEST PLAINS    CLOUDY    65  63  93 VRB5      29.79R THUNDER
6HR MIN TEMP:  64; 6HR MAX TEMP:  65; 6HR PCP:  0.04;

POPLAR BLUFF   CLOUDY    67  66  97 CALM      29.77R
6HR MIN TEMP:  65; 6HR MAX TEMP:  69; 6HR PCP:  0.09;

CAPE GIRARDEAU CLOUDY    67  65  93 NE9       29.80R
6HR MIN TEMP:  68; 6HR MAX TEMP:  71; 6HR PCP:  0.17;



...NORTHWEST ALABAMA...

CITY           SKY/WX    TMP DP  RH WIND       PRES   REMARKS
MUSCLE SHOALS  PTCLDY    76  67  73 S13       29.97S
6HR MIN TEMP:  76; 6HR MAX TEMP:  83;



...MIDDLE TENNESSEE...

CITY           SKY/WX    TMP DP  RH WIND       PRES   REMARKS
NASHVILLE      PTCLDY    78  67  68 S17G25    29.91R
6HR MIN TEMP:  76; 6HR MAX TEMP:  80;

CLARKSVILLE    PTCLDY    77  66  68 S12G22    29.88R
6HR MIN TEMP:  76; 6HR MAX TEMP:  79;

COLUMBIA       CLEAR     75  75 100 S20       29.90F


...WESTERN KENTUCKY...

CITY           SKY/WX    TMP DP  RH WIND       PRES   REMARKS
PADUCAH        CLOUDY    78  67  68 S6        29.81R
6HR MIN TEMP:  72; 6HR MAX TEMP:  79;

FORT CAMPBELL  CLOUDY    77  68  73 S10G20    29.88R
6HR MIN TEMP:  76; 6HR MAX TEMP:  78;



...CENTRAL ARKANSAS...

CITY           SKY/WX    TMP DP  RH WIND       PRES   REMARKS
LITTLE ROCK    CLOUDY    78  73  84 S16G23    29.75S
6HR MIN TEMP:  77; 6HR MAX TEMP:  81;



SKY/WX REPORTED AS FAIR MEANS FEW OR NO CLOUDS BELOW
12 THOUSAND FEET.




USA.gov is the U.S. government's official web portal to all federal, state and local government web resources and services.